Retour au catalogue

SL-16 DEB

ActifLEO
NORAD 39867·DEBRIS·🇷🇺 Russia

Lancé Dec 25, 1992 depuis Baikonur Cosmodrome

Loading…

Prochains Passages (prochaines 24 heures)

TLE

PériméSource: Space-Track

Époque: Sep 5, 2026, 14:02 UTC

1 39867U 92093LV  26248.58503154  .00002844  00000-0  11418-2 0  9994
2 39867  70.9639 331.6962 0128324 220.3928 138.7618 14.24625963608656

Suivez SL-16 DEB en temps réel avec AllMySat

Download on the App Store